Weather History for KTYQ - December, 2013

Change the Weather History Date:

Friday, December 27, 2013

  Actual Average (KEYE) Record (KEYE)
Temperature  
Mean Temperature 36 °F 29 °F  
Max Temperature 45 °F 36 °F - ()
Min Temperature 28 °F 22 °F - ()
Degree Days  
Heating Degree Days 28 36  
Month to date heating degree days 886  
Since 1 July heating degree days 1910  
Cooling Degree Days 0 0  
Month to date cooling degree days 0  
Year to date cooling degree days 1058  
Moisture  
Dew Point 26 °F    
Average Humidity 67    
Maximum Humidity 82    
Minimum Humidity 53    
Precipitation  
Precipitation 0.00 in 0.13 in - ()
Month to date precipitation 2.56  
Year to date precipitation 40.27  
Sea Level Pressure  
Sea Level Pressure 30.29 in    
Wind  
Wind Speed 11 mph (SW)    
Max Wind Speed 16 mph    
Max Gust Speed 23 mph    
Visibility 10 miles    
Events      
T = Trace of Precipitation, MM = Missing Value Source: NWS Daily Summary

Daily Weather History Graph

Daily Weather History Graph

Search for Another Location

Airport or City:

Trip Planner

Search our weather history database for the weather conditions in past years. The results will help you decide how hot, cold, wet, or windy it might be!

Date:

Astronomy

Dec. 27, 2013 Rise Set
Actual Time 8:05 AM EST 5:26 PM EST
Civil Twilight 7:35 AM EST 5:57 PM EST
Nautical Twilight 7:01 AM EST 6:31 PM EST
Astronomical Twilight 6:28 AM EST 7:04 PM EST
Moon 2:36 AM EST (12/27) 1:36 PM EST (12/27)
Length of Visible Light 10h 21m
Length of Day
9h 20m
Waning Crescent, 28% of the Moon is Illuminated
Dec 27
Waning Crescent
Jan 1
New
Jan 7
First Quarter
Jan 15
Full
Jan 24
Last Quarter

Hourly Weather History & Observations

Time (EST) Temp. Windchill Dew Point Humidity Pressure Visibility Wind Dir Wind Speed Gust Speed Precip Events Conditions
12:15 AM 33.8 °F 24.8 °F 22.1 °F 62% 30.29 in 10.0 mi SW 12.7 mph - N/A   Overcast
12:35 AM 33.8 °F 24.3 °F 22.1 °F 62% 30.29 in 10.0 mi SW 13.8 mph - N/A   Overcast
12:55 AM 33.8 °F 24.8 °F 22.5 °F 63% 30.29 in 10.0 mi SW 12.7 mph 18.4 mph N/A   Overcast
1:15 AM 34.0 °F 24.2 °F 22.5 °F 63% 30.28 in 10.0 mi SSW 15.0 mph 20.7 mph N/A   Overcast
1:35 AM 34.2 °F 24.0 °F 22.5 °F 62% 30.28 in 10.0 mi SSW 16.1 mph 19.6 mph N/A   Overcast
1:55 AM 34.2 °F 24.4 °F 22.3 °F 62% 30.28 in 10.0 mi SW 15.0 mph - N/A   Overcast
2:15 AM 34.2 °F 24.0 °F 22.1 °F 61% 30.28 in 10.0 mi SW 16.1 mph 23.0 mph N/A   Overcast
2:35 AM 33.4 °F 24.8 °F 21.9 °F 63% 30.28 in 10.0 mi SW 11.5 mph - N/A   Mostly Cloudy
2:55 AM 32.4 °F 24.0 °F 22.1 °F 66% 30.28 in 10.0 mi SW 10.4 mph - N/A   Scattered Clouds
3:15 AM 32.0 °F 23.6 °F 22.1 °F 67% 30.28 in 10.0 mi SSW 10.4 mph - N/A   Clear
3:35 AM 31.8 °F 23.9 °F 22.1 °F 67% 30.29 in 10.0 mi SW 9.2 mph - N/A   Clear
3:55 AM 32.0 °F 23.6 °F 22.1 °F 67% 30.29 in 10.0 mi SW 10.4 mph - N/A   Clear
4:15 AM 32.4 °F 24.0 °F 22.5 °F 67% 30.29 in 10.0 mi SW 10.4 mph - N/A   Scattered Clouds
4:35 AM 32.0 °F 23.6 °F 22.8 °F 69% 30.29 in 10.0 mi SW 10.4 mph - N/A   Scattered Clouds
4:55 AM 31.8 °F 23.3 °F 23.0 °F 70% 30.28 in 10.0 mi SW 10.4 mph - N/A   Scattered Clouds
5:15 AM 31.1 °F 23.7 °F 23.4 °F 73% 30.28 in 10.0 mi SW 8.1 mph - N/A   Mostly Cloudy
5:35 AM 30.7 °F 22.6 °F 23.4 °F 74% 30.28 in 10.0 mi SW 9.2 mph - N/A   Mostly Cloudy
5:55 AM 29.8 °F 23.9 °F 23.0 °F 76% 30.29 in 10.0 mi SW 5.8 mph - N/A   Mostly Cloudy
6:15 AM 29.1 °F 22.1 °F 23.2 °F 78% 30.29 in 10.0 mi SW 6.9 mph - N/A   Scattered Clouds
6:35 AM 28.8 °F 21.7 °F 22.8 °F 78% 30.29 in 10.0 mi SW 6.9 mph - N/A   Clear
6:55 AM 29.3 °F 22.3 °F 23.4 °F 78% 30.29 in 10.0 mi SSW 6.9 mph - N/A   Clear
7:15 AM 29.1 °F 22.1 °F 23.2 °F 78% 30.29 in 10.0 mi SSW 6.9 mph - N/A   Clear
7:35 AM 29.3 °F 21.5 °F 23.5 °F 79% 30.29 in 10.0 mi SW 8.1 mph - N/A   Clear
7:55 AM 28.4 °F 21.2 °F 23.4 °F 81% 30.31 in 10.0 mi SW 6.9 mph - N/A   Clear
8:15 AM 28.4 °F 21.2 °F 23.4 °F 81% 30.32 in 10.0 mi SW 6.9 mph - N/A   Clear
8:35 AM 28.6 °F 22.4 °F 23.7 °F 82% 30.33 in 10.0 mi SW 5.8 mph - N/A   Clear
8:55 AM 30.0 °F 23.2 °F 24.6 °F 80% 30.33 in 10.0 mi SW 6.9 mph - N/A   Clear
9:15 AM 31.3 °F 23.9 °F 25.3 °F 79% 30.34 in 10.0 mi SW 8.1 mph - N/A   Clear
9:35 AM 32.4 °F 26.0 °F 25.9 °F 77% 30.35 in 10.0 mi SW 6.9 mph - N/A   Clear
9:55 AM 33.8 °F 26.4 °F 26.1 °F 73% 30.36 in 10.0 mi SW 9.2 mph - N/A   Clear
10:15 AM 34.9 °F 28.3 °F 26.4 °F 71% 30.36 in 10.0 mi SW 8.1 mph - N/A   Clear
10:35 AM 36.3 °F 29.5 °F 26.6 °F 68% 30.36 in 10.0 mi SW 9.2 mph - N/A   Clear
10:55 AM 37.4 °F 32.1 °F 26.8 °F 66% 30.36 in 10.0 mi SW 6.9 mph - N/A   Clear
11:15 AM 38.1 °F 32.3 °F 26.8 °F 64% 30.36 in 10.0 mi SW 8.1 mph - N/A   Clear
11:35 AM 39.2 °F 33.6 °F 27.3 °F 62% 30.35 in 10.0 mi SW 8.1 mph - N/A   Clear
11:55 AM 40.1 °F 34.1 °F 27.7 °F 61% 30.35 in 10.0 mi SSW 9.2 mph - N/A   Clear
12:15 PM 41.0 °F 35.8 °F 27.9 °F 60% 30.34 in 10.0 mi SW 8.1 mph - N/A   Clear
12:35 PM 42.4 °F 36.5 °F 28.2 °F 57% 30.33 in 10.0 mi SW 10.4 mph - N/A   Clear
12:55 PM 43.7 °F 38.6 °F 28.8 °F 56% 30.32 in 10.0 mi SW 9.2 mph - N/A   Clear
1:15 PM 44.6 °F 39.7 °F 28.9 °F 54% 30.31 in 10.0 mi SW 9.2 mph - N/A   Clear
1:35 PM 44.4 °F 38.6 °F 28.8 °F 54% 30.31 in 10.0 mi SW 11.5 mph - N/A   Clear
1:55 PM 44.6 °F 38.4 °F 28.9 °F 54% 30.30 in 10.0 mi SW 12.7 mph - N/A   Clear
2:15 PM 44.8 °F 38.0 °F 29.1 °F 54% 30.29 in 10.0 mi SSW 15.0 mph - N/A   Clear
2:35 PM 45.0 °F 39.3 °F 29.1 °F 54% 30.28 in 10.0 mi SSW 11.5 mph - N/A   Clear
2:55 PM 45.0 °F 39.7 °F 29.3 °F 54% 30.28 in 10.0 mi SSW 10.4 mph - N/A   Clear
3:15 PM 45.5 °F 39.6 °F 29.3 °F 53% 30.28 in 10.0 mi SW 12.7 mph 17.3 mph N/A   Clear
3:35 PM 45.7 °F 40.2 °F 29.3 °F 53% 30.27 in 10.0 mi SSW 11.5 mph - N/A   Clear
3:55 PM 45.5 °F 39.6 °F 29.3 °F 53% 30.27 in 10.0 mi SW 12.7 mph - N/A   Clear
4:15 PM 45.1 °F 40.3 °F 29.3 °F 54% 30.27 in 10.0 mi SSW 9.2 mph - N/A   Clear
4:35 PM 44.6 °F 38.8 °F 29.7 °F 56% 30.27 in 10.0 mi SSW 11.5 mph - N/A   Clear
4:55 PM 43.7 °F 38.1 °F 29.3 °F 57% 30.27 in 10.0 mi SSW 10.4 mph - N/A   Clear
5:15 PM 42.6 °F 37.8 °F 29.3 °F 59% 30.27 in 10.0 mi SSW 8.1 mph - N/A   Clear
5:35 PM 40.8 °F 35.0 °F 29.1 °F 63% 30.27 in 10.0 mi SSW 9.2 mph - N/A   Clear
5:55 PM 39.4 °F 33.2 °F 28.6 °F 65% 30.27 in 10.0 mi SSW 9.2 mph - N/A   Clear
6:15 PM 39.0 °F 32.3 °F 28.9 °F 67% 30.27 in 10.0 mi SSW 10.4 mph - N/A   Clear
6:35 PM 38.8 °F 32.6 °F 28.6 °F 67% 30.26 in 10.0 mi SSW 9.2 mph - N/A   Clear
6:55 PM 38.7 °F 31.4 °F 28.6 °F 67% 30.26 in 10.0 mi SSW 11.5 mph - N/A   Clear
7:15 PM 37.9 °F 30.9 °F 28.6 °F 69% 30.26 in 10.0 mi SSW 10.4 mph - N/A   Clear
7:35 PM 37.8 °F 30.7 °F 28.4 °F 69% 30.26 in 10.0 mi SSW 10.4 mph - N/A   Clear
7:55 PM 38.3 °F 31.4 °F 28.9 °F 69% 30.27 in 10.0 mi SSW 10.4 mph - N/A   Clear
8:15 PM 38.1 °F 31.2 °F 28.9 °F 70% 30.27 in 10.0 mi SSW 10.4 mph - N/A   Clear
8:35 PM 37.8 °F 30.7 °F 28.8 °F 70% 30.27 in 10.0 mi SW 10.4 mph - N/A   Clear
8:55 PM 37.6 °F 30.0 °F 29.1 °F 72% 30.26 in 10.0 mi SSW 11.5 mph - N/A   Clear
9:15 PM 37.9 °F 29.6 °F 29.3 °F 71% 30.26 in 10.0 mi SSW 13.8 mph - N/A   Clear
9:35 PM 38.3 °F 30.5 °F 29.5 °F 71% 30.26 in 10.0 mi SW 12.7 mph 18.4 mph N/A   Clear
9:55 PM 38.3 °F 30.1 °F 29.7 °F 71% 30.26 in 10.0 mi SSW 13.8 mph - N/A   Clear
10:15 PM 38.5 °F 30.3 °F 29.8 °F 71% 30.26 in 10.0 mi SSW 13.8 mph 21.9 mph N/A   Clear
10:35 PM 38.7 °F 30.1 °F 29.8 °F 71% 30.26 in 10.0 mi SSW 15.0 mph 19.6 mph N/A   Clear
10:55 PM 38.5 °F 30.3 °F 29.7 °F 71% 30.25 in 10.0 mi SSW 13.8 mph - N/A   Clear
11:15 PM 38.7 °F 30.9 °F 29.8 °F 71% 30.24 in 10.0 mi SSW 12.7 mph 18.4 mph N/A   Clear
11:35 PM 38.3 °F 29.7 °F 29.7 °F 71% 30.23 in 10.0 mi SSW 15.0 mph - N/A   Clear
11:55 PM 38.3 °F 30.5 °F 29.7 °F 71% 30.23 in 10.0 mi SSW 12.7 mph 19.6 mph N/A   Clear